www.pogodaiklimat.ru
ПОГОДА в Ролла / Виши
Время
и дата
08:53 27.11
09:17 27.11
09:31 27.11
09:43 27.11
09:48 27.11
09:53 27.11
10:06 27.11
10:19 27.11
10:53 27.11
11:03 27.11
11:14 27.11
11:53 27.11
12:00 27.11
12:53 27.11
13:53 27.11
14:53 27.11
15:53 27.11
16:53 27.11
17:53 27.11
18:27 27.11
18:53 27.11
19:53 27.11
20:53 27.11
21:53 27.11
22:53 27.11
23:53 27.11
00:53 28.11
01:53 28.11
02:53 28.11
03:53 28.11
04:53 28.11
05:53 28.11
06:10 28.11
06:46 28.11
06:53 28.11
07:53 28.11
08:53 28.11
09:53 28.11
10:53 28.11
11:53 28.11
12:53 28.11
13:53 28.11
14:53 28.11
15:53 28.11
16:53 28.11
17:53 28.11
18:53 28.11
19:53 28.11
Ветер
(напр.,м/с)
Видим. Явления Облачность Т
(С)
Тd
(С)
f
(%)
Тe
(С)
Тes
(С)
Комфортность P
(гПа)
Po
(гПа)
Тmin
(С)
Tmax
(С)
R
(мм)
R24
(мм)
S
(см)
СЗ 9
{12}
10 км слабый дождь, дымка 10/10 180 m
[Ns]
+6.1 +5.0 93 0 0 1001.9 960.7 0.3
СЗ 6
{11}
3 км слабый дождь, дымка 10/10 180 m
[Ns]
+6.1 +5.0 93 +1 +1 961.3
СЗ 7
{13}
3 км слабый дождь, дымка 10/10 150 m
[Ns]
+6.1 +4.4 89 +1 +1 961.7
СЗ 8
{12}
3 км слабый дождь, дымка 10/10 120 m
[Ns]
+5.6 +4.4 92 0 0 962.3
СЗ 7
{12}
5 км дымка 10/10 180 м +6.0 +4.0 87 +1 +1 962.6
СЗ 7
{10}
6 км дымка 10/10 180 м +6.1 +4.4 89 +1 +1 1004.2 963.0
СЗ 6
{12}
3 км дымка 10/10 180 м +6.1 +5.0 93 +1 +1 963.3
СЗ 5 6 км дымка 10/10 180 м +6.1 +5.0 93 +2 +2 963.3
СЗ 7
{10}
10 км дымка 10/10 330 м +6.7 +4.4 85 +2 +2 1004.9 963.6
СЗ 5
{10}
10 км дымка 10/10 270 м +6.7 +5.0 89 +2 +2 963.6
СЗ 6
{10}
11 км 10/10 300 м +7.2 +5.6 90 +3 +3 963.6
СЗ 6 14 км 10/10 420 м +7.8 +5.0 82 +4 +4 1005.4 964.3 +5.6 +7.8 0.5
СЗ 7
{10}
14 км 8/8 450 м +7.8 +4.4 79 +3 +4 964.3
З 7
{11}
16 км 10/10 540 м +7.2 +3.9 80 +3 +3 1006.5 965.2
З 5 16 км 10/10 540 м +7.2 +3.9 80 +3 +3 1007.6 966.2
З 4
{9}
16 км 10/10 420 м +7.2 +4.4 82 +4 +4 1008.4 966.9
З 5 16 км 10/10 330 м +6.1 +3.9 86 +2 +2 1009.5 967.8
З 5 16 км 10/10 330 м +6.1 +3.3 82 +2 +2 1010.3 968.5
СЗ 6 16 км 10/10 330 м +5.6 +3.3 85 +1 +1 1011.2 969.5 +5.6 +8.3
СЗ 5 16 км 10/10 450 м +5.0 +2.8 86 0 0 969.8
СЗ 4 16 км 10/10 450 м +5.0 +2.2 82 +1 +1 1011.4 969.8
З 3 16 км 10/10 480 м +4.4 +2.2 86 +1 +1 1012.4 970.4
З 3 16 км 10/10 660 м +4.4 +2.2 86 +1 +1 1012.6 970.8
ЮЗ 2 16 км 10/10 690 м +4.4 +2.8 89 +2 +2 1013.3 971.4
ЮЗ 2 16 км 10/10 690 м +4.4 +2.8 89 +2 +2 1013.4 971.4
З 3 16 км 10/10 660 м +5.0 +2.8 86 +2 +2 1013.2 971.4 +4.4 +5.6
ЮЗ 2 16 км 10/10 660 м +5.0 +2.8 86 +2 +2 1013.1 971.4
ЮЗ 2 16 км 10/10 660 м +4.4 +3.3 93 +2 +2 1012.7 971.1
ЮЗ 2 14 км 10/10 660 м +4.4 +3.3 93 +2 +2 1012.7 971.1
З 2 14 км 10/10 600 м +4.4 +3.3 93 +2 +2 1013.0 971.1
З 3 16 км 10/10 570 м +3.9 +2.2 89 0 0 1013.2 971.4
Ю 3 16 км 8/8 510 м +3.3 +1.7 89 -1 -1 1013.4 971.4 +3.3 +5.0 0.5
Ю 3 16 км 5/5 510 м +2.2 +0.6 89 -2 -2 971.4
ЮЗ 3 16 км 8/8 450 м +1.7 +0.6 92 -3 -3 972.1
ЮЗ 3 16 км 5/5 450 м +1.7 +0.6 92 -3 -3 1014.3 972.1
Ю 2 11 км ясно +1.7 +0.6 92 -2 -2 1014.9 972.7
Ю 4 16 км ясно +4.4 +2.2 86 0 0 1015.2 973.0
ЮЗ 4 16 км ясно +6.1 +2.2 76 +2 +4 1015.3 973.4
Ю 4 16 км ясно +7.2 +2.2 71 +4 +6 1014.7 972.7
ЮВ 4 16 км ясно +8.3 +2.8 68 +5 +9 1013.7 972.1 +1.1 +8.9
Ю 3 16 км ясно +10.0 +2.2 58 +8 +13 1012.7 971.1
ЮВ 4 16 км ясно +11.1 +2.2 54 +9 +13 1012.1 970.4
Ю 6 16 км ясно +11.7 +2.2 52 +9 +11 1011.7 970.1
ЮВ 5 16 км ясно +11.7 +1.7 50 +10 +11 1011.3 969.8
ЮВ 4 16 км ясно +9.4 +1.7 59 +7 +7 1011.6 969.8
ЮВ 4 16 км ясно +7.8 +1.1 63 +5 +5 1011.4 969.8 +7.8 +11.7
ЮВ 4 16 км ясно +7.8 +1.7 65 +5 +5 1011.2 969.5
ЮВ 4 16 км ясно +7.8 +2.8 71 +5 +5 1010.8 969.1
Местоположение метеостанции Rolla National Airport: широта 38.1319 долгота -91.7653 высота над уровнем моря 350 м.
В архиве по умолчанию представлена погода в Ролла / Виши за последние 1-2 суток. Обновление информации о фактической погоде в базе происходит ежечасно! Архивные данные за месяц целиком и за предыдущие месяцы Вы можете получить, выбрав интересующий диапазон дат из раскрывающегося списка и нажав кнопку "Ввод!".
Внимание! Архив погоды МЕТАР в базе сайта по станциям, не включенным в климатический монитор, хранится не более 60 дней. Нет смысла пытаться выбрать более раннюю дату.
*Определитесь, кто Вы:
Внимание! Время в таблицах - местное (без учета летнего времени). Для получения всемирного времени необходимо вычесть поправку, которая равна -6 ч.
Смотрите также архив погоды в соседних городах и на ближайших метеорологических станциях:
Партнеры нашего сайта:      
Пояснения к столбцам:
  • Ветер - указаны скорость ветра в м/с - средняя за 10 мин, порывы в срок и между сроками (в фигурных скобках) и направление, откуда дует ветер: С - северный,
  • СВ - северо-восточный, В - восточный, ЮВ - юго-восточный, Ю - южный, ЮЗ - юго-западный, З - западный, СЗ - северо-западный.
  • Видимость - горизонтальная дальность видимости в метрах или километрах. При видимости от 1 до 10 км при отсутствии осадков обычно наблюдается дымка, при ухудшении видимости до 1 км и менее - туман. В сухую погоду видимость может ухудшаться дымом, пылью или мглою.
  • Явления - указаны атмосферные явления, наблюдавшиеся в срок или в последний час перед сроком; фигурными скобками обозначены явления, наблюдавшиеся между сроками (за 1-3 часа до срока); квадратными скобками обозначены град или гололедные отложения с указанием их диаметра в мм.
  • Облачность - указаны через наклонную черту общая и нижняя облачность в баллах и высота нижней границы облаков в метрах; квадратными скобками обозначены формы облаков: Ci - перистые, Cs - перисто-слоистые, Cc - перисто-кучевые, Ac - высококучевые, As - высокослоистые, Sc - слоисто-кучевые, Ns - слоисто-дождевые, Cu - кучевые, Cb - кучево-дождевые. Подробнее классификацию облаков см. в Атласе облаков (PDF).
  • T - Температура воздуха - температура, измеренная на высоте 2 м над землей.
  • Td - Температура точки росы - температура, при понижении до которой содержащийся в воздухе водяной пар достигнет насыщения.
  • f - Относительная влажность воздуха - влажноcть воздуха, измеренная на высоте 2 м над землей.
  • Te - Эффективная температура - температура, которую ощущает одетый по сезону человек в тени. Характеристика душности погоды. При расчете учитывается влияние влажности воздуха и скорости ветра на теплоощущения человека.
  • Tes - Эффективная температура на солнце - температура, которую ощущает человек, с поправкой на солнечный нагрев. Характеристика знойности погоды. Зависит от высоты солнца над горизонтом, облачности и скорости ветра. Ночью, в пасмурную погоду, а также при ветре 12 м/с и более поправка равна нулю.
  • P - Атмосферное давление - приведенное к уровню моря атмосферное давление.
  • Po - Атмосферное давление - измеренное на уровне метеостанции атмосферное давление.
  • Tmin - Минимальная температура - минимум температуры воздуха на высоте 2 м над землей.
  • Tmax - Максимальная температура - максимум температуры воздуха на высоте 2 м над землей.
  • R - Количество осадков - Количество выпавших осадков за период времени, мм. При наведении курсора мыши на число - период времени, за который выпало указанное количество осадков.
  • R24 - Количество осадков - Количество выпавших осадков за 24 часа, мм.
  • S - Снежный покров - Высота снежного покрова, см. При наведении курсора мыши на число - состояние снежного покрова и степень покрытия местности в баллах.